sat.trackr.live / text

‹ back to catalog

STARLINK-35191

NORAD 65594 · 2025-207C

PAYLOAD ACTIVE UNKNOWN

§ Identity

Operator
Country
US
Launch date
2025-09-13
Launch site
AFWTR
Launch vehicle
Mass (kg)
RCS (m²)

Purposes: comms

External: N2YO · Heavens-Above · Gunter

§ Orbital elements

Epoch: 2026-09-20T22:00:03.000096Z

Period
93.91 min
Inclination
97.2854°
Eccentricity
0.0001661
Mean motion
15.33399076 rev/d
Perigee alt
464.5 km
Apogee alt
466.8 km
Semi-major
6,843.8 km
B*
-3.1052e-4
RAAN
326.3720°
Arg perigee
81.9783°
Mean anomaly
48.5292°
Rev number
579

§ Raw data

STARLINK-351911 65594U 25207C   26263.91670139 -.00010073  00000+0 -31052-3 0  99962 65594  97.2854 326.3720 0001661  81.9783  48.5292 15.33399076  5796

JSON: /api/v1/satellites/65594 · /tle

For live sub-satellite position, see the globe view (requires WebGL).

§ Visibility from observer

Set your observer location to see the next 7 days of passes ≥ 10°. The values pass through the URL so the page stays shareable.

No JS? Fill the form by hand. The geolocation button needs JavaScript.